Hourly Data Report for June 20, 2021

VINELAND STATION RCS
ONTARIO
Current Station Operator: ECCC - MSC

43°11'00.000" N
79°24'00.000" W
79.20 m
6139148
71171
XVN

Download Data

Hourly Data (June 2021)
Hourly Data Report for June 20, 2021
TIME
LST
Temp Definition
°C
Dew Point Definition
°C
Rel Hum Definition
%
Precip. Amount Definition
mm

Wind Dir Definition
10's deg

Wind Spd Definition
km/h
Visibility Definition
km
Stn Press Definition
kPa
Hmdx Definition


Wind Chill Definition


Weather Definition


00:00 17.7 15.4 87 0.0 20 13   99.85     LegendNANA
01:00 17.6 15.6 88 0.0 19 10   99.80     LegendNANA
02:00 17.1 15.6 91 0.0 21 9   99.78     LegendNANA
03:00 16.2 15.1 93 0.0 0 1   99.79     LegendNANA
04:00 15.1 14.4 95 0.0 30 5   99.83     LegendNANA
05:00 15.4 14.9 96 0.0 19 2   99.85     LegendNANA
06:00 17.0 15.8 93 0.0 19 2   99.85     LegendNANA
07:00 19.2 16.5 84 0.0 21 5   99.86     LegendNANA
08:00 21.4 16.7 75 0.0 33 2   99.86 26   LegendNANA
09:00 21.4 16.0 72 0.0 1 8   99.85 26   LegendNANA
10:00 21.0 16.4 75 0.0 1 11   99.82 26   LegendNANA
11:00 20.8 16.7 77 0.0 4 12   99.78 26   LegendNANA
12:00 21.2 16.1 73 0.0 5 9   99.75 26   LegendNANA
13:00 21.4 16.5 74 0.0 6 10   99.73 26   LegendNANA
14:00 21.6 16.4 72 0.0 7 10   99.66 26   LegendNANA
15:00 22.4 16.6 70 0.0 7 15   99.54 27   LegendNANA
16:00 21.4 16.4 73 0.0 7 16   99.51 26   LegendNANA
17:00 22.3 16.9 72 0.0 7 15   99.48 28   LegendNANA
18:00 22.6 17.7 74 0.0 8 5   99.47 28   LegendNANA
19:00 24.6 20.1 76 0.0 18 3   99.49 32   LegendNANA
20:00 23.8 19.7 78 0.0 21 11   99.44 31   LegendNANA
21:00 23.0 19.5 81 0.0 18 10   99.44 30   LegendNANA
22:00 22.4 19.4 83 0.0 17 10   99.38 29   LegendNANA
23:00 21.7 19.4 87 0.0 21 10   99.37 29   LegendNANA

Notes on Data Quality.

Legend

  • E = Estimated
  • M = Missing
  • NA = Not Available*
  • [empty] = Indicates an unobserved value
Date modified: